Time,TemperatureF,DewpointF,PressureIn,WindDirection,WindDirectionDegrees,WindSpeedMPH,WindSpeedGustMPH,Humidity,HourlyPrecipIn,Conditions,Clouds,dailyrainin,SoftwareType,DateUTC
2013-01-01 00:00:00,33.4,6.1,0.00,WSW,255,0.0,0.0,31,0.00,,,0.00,VWS V13.01,2013-01-01 05:00:00,
2013-01-01 00:01:00,33.4,6.1,0.00,South,187,5.4,5.4,31,0.00,,,0.00,VWS V13.01,2013-01-01 05:01:00,
2013-01-01 00:03:00,33.4,6.1,0.00,SSE,160,3.1,3.1,31,0.00,,,0.00,VWS V13.01,2013-01-01 05:03:00,
2013-01-01 00:08:00,33.6,6.2,0.00,ESE,117,5.4,8.1,31,0.00,,,0.00,VWS V13.01,2013-01-01 05:08:00,
2013-01-01 00:13:00,33.6,6.9,0.00,SW,235,3.6,3.6,32,0.00,,,0.00,VWS V13.01,2013-01-01 05:13:00,
2013-01-01 00:18:00,33.6,6.9,0.00,SW,215,4.0,6.3,32,0.00,,,0.00,VWS V13.01,2013-01-01 05:18:00,
2013-01-01 00:23:00,33.6,6.9,0.00,SW,236,4.0,6.3,32,0.00,,,0.00,VWS V13.01,2013-01-01 05:23:00,
2013-01-01 00:28:00,33.6,6.9,0.00,WSW,252,5.8,6.3,32,0.00,,,0.00,VWS V13.01,2013-01-01 05:28:00,
2013-01-01 00:33:00,33.8,7.1,0.00,WSW,244,0.0,3.6,32,0.00,,,0.00,VWS V13.01,2013-01-01 05:33:00,
2013-01-01 00:38:00,33.8,7.8,0.00,SW,230,5.8,5.8,33,0.00,,,0.00,VWS V13.01,2013-01-01 05:38:00,
2013-01-01 00:44:00,33.8,7.8,0.00,SSW,203,5.4,6.3,33,0.00,,,0.00,VWS V13.01,2013-01-01 05:44:00,
2013-01-01 00:49:00,33.8,8.4,0.00,SW,229,4.9,4.9,34,0.00,,,0.00,VWS V13.01,2013-01-01 05:49:00,
2013-01-01 00:54:00,33.8,9.1,0.00,WSW,251,5.4,6.7,35,0.00,,,0.00,VWS V13.01,2013-01-01 05:54:00,
2013-01-01 00:59:00,33.8,9.1,0.00,West,267,7.6,8.1,35,0.00,,,0.00,VWS V13.01,2013-01-01 05:59:00,
2013-01-01 01:04:00,33.8,9.7,0.00,WSW,243,4.0,4.0,36,0.00,,,0.00,VWS V13.01,2013-01-01 06:04:00,
2013-01-01 01:09:00,33.8,10.3,0.00,West,259,6.3,6.7,37,0.00,,,0.00,VWS V13.01,2013-01-01 06:09:00,
2013-01-01 01:14:00,33.8,10.3,0.00,West,261,3.1,3.6,37,0.00,,,0.00,VWS V13.01,2013-01-01 06:14:00,
2013-01-01 01:19:00,33.8,10.3,0.00,West,259,5.4,5.4,37,0.00,,,0.00,VWS V13.01,2013-01-01 06:19:00,
2013-01-01 01:24:00,33.8,10.9,0.00,WSW,241,3.6,4.0,38,0.00,,,0.00,VWS V13.01,2013-01-01 06:24:00,
2013-01-01 01:29:00,33.8,10.9,0.00,SSW,202,3.6,3.6,38,0.00,,,0.00,VWS V13.01,2013-01-01 06:29:00,
2013-01-01 01:34:00,33.6,11.3,0.00,SW,234,0.0,0.0,39,0.00,,,0.00,VWS V13.01,2013-01-01 06:34:00,
2013-01-01 01:39:00,33.8,11.5,0.00,West,267,0.0,0.0,39,0.00,,,0.00,VWS V13.01,2013-01-01 06:39:00,
2013-01-01 01:44:00,33.8,11.5,0.00,West,264,0.0,0.0,39,0.00,,,0.00,VWS V13.01,2013-01-01 06:44:00,
2013-01-01 01:49:00,33.8,11.5,0.00,West,261,0.0,0.0,39,0.00,,,0.00,VWS V13.01,2013-01-01 06:49:00,
2013-01-01 01:54:00,34.0,11.1,0.00,WSW,252,0.0,0.0,38,0.00,,,0.00,VWS V13.01,2013-01-01 06:54:00,
2013-01-01 01:59:00,34.0,10.5,0.00,West,260,0.0,0.0,37,0.00,,,0.00,VWS V13.01,2013-01-01 06:59:00,
2013-01-01 02:05:00,34.5,9.7,0.00,WSW,248,0.0,0.0,35,0.00,,,0.00,VWS V13.01,2013-01-01 07:05:00,
2013-01-01 02:10:00,34.9,9.4,0.00,WSW,248,0.0,0.0,34,0.00,,,0.00,VWS V13.01,2013-01-01 07:10:00,
2013-01-01 02:15:00,35.1,8.9,0.00,West,265,0.0,0.0,33,0.00,,,0.00,VWS V13.01,2013-01-01 07:15:00,
2013-01-01 02:20:00,35.1,8.9,0.00,WSW,256,0.0,0.0,33,0.00,,,0.00,VWS V13.01,2013-01-01 07:20:00,
2013-01-01 02:25:00,35.1,8.9,0.00,SW,229,0.0,0.0,33,0.00,,,0.00,VWS V13.01,2013-01-01 07:25:00,
2013-01-01 02:30:00,35.1,8.9,0.00,WSW,238,0.0,0.0,33,0.00,,,0.00,VWS V13.01,2013-01-01 07:30:00,
2013-01-01 02:35:00,34.9,9.4,0.00,WSW,257,0.0,0.0,34,0.00,,,0.00,VWS V13.01,2013-01-01 07:35:00,
2013-01-01 02:40:00,35.1,8.9,0.00,West,276,0.0,0.0,33,0.00,,,0.00,VWS V13.01,2013-01-01 07:40:00,
2013-01-01 02:45:00,35.2,8.4,0.00,West,265,0.0,0.0,32,0.00,,,0.00,VWS V13.01,2013-01-01 07:45:00,
2013-01-01 02:50:00,35.4,8.5,0.00,WSW,252,0.0,0.0,32,0.00,,,0.00,VWS V13.01,2013-01-01 07:50:00,
2013-01-01 02:56:00,35.4,9.2,0.00,SW,225,0.0,0.0,33,0.00,,,0.00,VWS V13.01,2013-01-01 07:56:00,
2013-01-01 03:01:00,35.4,8.5,0.00,WSW,246,0.0,0.0,32,0.00,,,0.00,VWS V13.01,2013-01-01 08:01:00,
2013-01-01 03:06:00,35.4,8.5,0.00,WNW,289,0.0,0.0,32,0.00,,,0.00,VWS V13.01,2013-01-01 08:06:00,
2013-01-01 03:11:00,35.4,8.5,0.00,West,261,0.0,0.0,32,0.00,,,0.00,VWS V13.01,2013-01-01 08:11:00,
2013-01-01 03:16:00,35.6,8.0,0.00,WSW,247,0.0,0.0,31,0.00,,,0.00,VWS V13.01,2013-01-01 08:16:00,
2013-01-01 03:21:00,35.6,8.0,0.00,West,263,0.0,0.0,31,0.00,,,0.00,VWS V13.01,2013-01-01 08:21:00,
2013-01-01 03:26:00,35.8,8.1,0.00,SSW,198,0.0,0.0,31,0.00,,,0.00,VWS V13.01,2013-01-01 08:26:00,
2013-01-01 03:31:00,35.8,8.1,0.00,WSW,257,0.0,0.0,31,0.00,,,0.00,VWS V13.01,2013-01-01 08:31:00,
2013-01-01 03:36:00,35.8,8.1,0.00,West,260,0.0,0.0,31,0.00,,,0.00,VWS V13.01,2013-01-01 08:36:00,
2013-01-01 03:41:00,35.6,8.7,0.00,West,276,0.0,0.0,32,0.00,,,0.00,VWS V13.01,2013-01-01 08:41:00,
2013-01-01 03:47:00,35.6,8.7,0.00,WSW,257,0.0,0.0,32,0.00,,,0.00,VWS V13.01,2013-01-01 08:47:00,
2013-01-01 03:52:00,35.6,8.7,0.00,SW,231,0.0,0.0,32,0.00,,,0.00,VWS V13.01,2013-01-01 08:52:00,
2013-01-01 03:57:00,35.6,8.7,0.00,WSW,245,0.0,0.0,32,0.00,,,0.00,VWS V13.01,2013-01-01 08:57:00,
2013-01-01 04:02:00,35.4,9.2,0.00,WSW,256,0.0,0.0,33,0.00,,,0.00,VWS V13.01,2013-01-01 09:02:00,
2013-01-01 04:07:00,35.4,9.2,0.00,West,259,0.0,0.0,33,0.00,,,0.00,VWS V13.01,2013-01-01 09:07:00,
2013-01-01 04:12:00,35.2,9.0,0.00,WSW,250,0.0,0.0,33,0.00,,,0.00,VWS V13.01,2013-01-01 09:12:00,
2013-01-01 04:17:00,35.2,9.0,0.00,SW,235,0.0,0.0,33,0.00,,,0.00,VWS V13.01,2013-01-01 09:17:00,
2013-01-01 04:22:00,35.4,9.2,0.00,West,262,0.0,0.0,33,0.00,,,0.00,VWS V13.01,2013-01-01 09:22:00,
2013-01-01 04:27:00,35.4,9.2,0.00,WSW,254,0.0,0.0,33,0.00,,,0.00,VWS V13.01,2013-01-01 09:27:00,
2013-01-01 04:32:00,35.4,9.2,0.00,WSW,250,0.0,0.0,33,0.00,,,0.00,VWS V13.01,2013-01-01 09:32:00,
2013-01-01 04:38:00,35.4,9.2,0.00,WSW,252,0.0,0.0,33,0.00,,,0.00,VWS V13.01,2013-01-01 09:38:00,
2013-01-01 04:43:00,35.4,9.2,0.00,WSW,251,0.0,0.0,33,0.00,,,0.00,VWS V13.01,2013-01-01 09:43:00,
2013-01-01 04:48:00,35.4,9.2,0.00,SSW,204,0.0,0.0,33,0.00,,,0.00,VWS V13.01,2013-01-01 09:48:00,
2013-01-01 04:53:00,35.2,9.0,0.00,SSW,192,0.0,0.0,33,0.00,,,0.00,VWS V13.01,2013-01-01 09:53:00,
2013-01-01 04:58:00,35.4,9.2,0.00,WSW,239,0.0,0.0,33,0.00,,,0.00,VWS V13.01,2013-01-01 09:58:00,
2013-01-01 05:03:00,35.4,9.9,0.00,WSW,254,0.0,0.0,34,0.00,,,0.00,VWS V13.01,2013-01-01 10:03:00,
2013-01-01 05:08:00,35.4,9.9,0.00,West,260,0.0,0.0,34,0.00,,,0.00,VWS V13.01,2013-01-01 10:08:00,
2013-01-01 05:13:00,35.4,9.2,0.00,WSW,248,0.0,0.0,33,0.00,,,0.00,VWS V13.01,2013-01-01 10:13:00,
2013-01-01 05:18:00,35.4,9.2,0.00,West,260,0.0,0.0,33,0.00,,,0.00,VWS V13.01,2013-01-01 10:18:00,
2013-01-01 05:23:00,35.4,9.2,0.00,WNW,286,0.0,0.0,33,0.00,,,0.00,VWS V13.01,2013-01-01 10:23:00,
2013-01-01 05:28:00,35.4,9.2,0.00,WSW,255,0.0,0.0,33,0.00,,,0.00,VWS V13.01,2013-01-01 10:28:00,
2013-01-01 05:33:00,35.4,8.5,0.00,West,259,0.0,0.0,32,0.00,,,0.00,VWS V13.01,2013-01-01 10:33:00,
2013-01-01 05:38:00,35.6,7.2,0.00,WSW,255,0.0,0.0,30,0.00,,,0.00,VWS V13.01,2013-01-01 10:38:00,
2013-01-01 05:43:00,36.0,5.2,0.00,West,262,0.0,0.0,27,0.00,,,0.00,VWS V13.01,2013-01-01 10:43:00,
2013-01-01 05:48:00,36.5,5.7,0.00,West,259,0.0,0.0,27,0.00,,,0.00,VWS V13.01,2013-01-01 10:48:00,
2013-01-01 05:53:00,36.5,3.2,0.00,West,262,0.0,0.0,24,0.00,,,0.00,VWS V13.01,2013-01-01 10:53:00,
2013-01-01 05:59:00,36.9,3.5,0.00,WSW,246,0.0,0.0,24,0.00,,,0.00,VWS V13.01,2013-01-01 10:59:00,
2013-01-01 06:04:00,37.2,1.9,0.00,WNW,287,0.0,0.0,22,0.00,,,0.00,VWS V13.01,2013-01-01 11:04:00,
2013-01-01 06:09:00,37.2,1.9,0.00,West,272,0.0,0.0,22,0.00,,,0.00,VWS V13.01,2013-01-01 11:09:00,
2013-01-01 06:14:00,37.4,1.0,0.00,West,268,0.0,0.0,21,0.00,,,0.00,VWS V13.01,2013-01-01 11:14:00,
2013-01-01 06:19:00,37.4,1.0,0.00,WSW,258,0.0,0.0,21,0.00,,,0.00,VWS V13.01,2013-01-01 11:19:00,
2013-01-01 06:24:00,37.2,1.9,0.00,WSW,257,0.0,0.0,22,0.00,,,0.00,VWS V13.01,2013-01-01 11:24:00,
2013-01-01 06:29:00,37.2,1.9,0.00,WSW,247,0.0,0.0,22,0.00,,,0.00,VWS V13.01,2013-01-01 11:29:00,
2013-01-01 06:34:00,37.0,1.7,0.00,West,262,0.0,0.0,22,0.00,,,0.00,VWS V13.01,2013-01-01 11:34:00,
2013-01-01 06:39:00,36.9,1.6,0.00,WSW,256,0.0,0.0,22,0.00,,,0.00,VWS V13.01,2013-01-01 11:39:00,
2013-01-01 06:44:00,36.9,1.6,0.00,West,265,0.0,0.0,22,0.00,,,0.00,VWS V13.01,2013-01-01 11:44:00,
2013-01-01 06:49:00,36.7,1.4,0.00,WSW,253,0.0,0.0,22,0.00,,,0.00,VWS V13.01,2013-01-01 11:49:00,
2013-01-01 06:54:00,36.7,1.4,0.00,WSW,252,0.0,0.0,22,0.00,,,0.00,VWS V13.01,2013-01-01 11:54:00,
2013-01-01 06:59:00,36.5,1.3,0.00,WSW,254,0.0,0.0,22,0.00,,,0.00,VWS V13.01,2013-01-01 11:59:00,
2013-01-01 07:04:00,36.3,1.1,0.00,West,266,0.0,0.0,22,0.00,,,0.00,VWS V13.01,2013-01-01 12:04:00,
2013-01-01 07:09:00,36.3,1.1,0.00,West,270,0.0,0.0,22,0.00,,,0.00,VWS V13.01,2013-01-01 12:09:00,
2013-01-01 07:14:00,36.0,0.8,0.00,WNW,282,0.0,0.0,22,0.00,,,0.00,VWS V13.01,2013-01-01 12:14:00,
2013-01-01 07:19:00,35.8,0.7,0.00,WNW,300,0.0,0.0,22,0.00,,,0.00,VWS V13.01,2013-01-01 12:19:00,
2013-01-01 07:24:00,35.6,0.5,0.00,WNW,298,0.0,0.0,22,0.00,,,0.00,VWS V13.01,2013-01-01 12:24:00,
2013-01-01 07:29:00,35.4,0.4,0.00,WNW,298,0.0,0.0,22,0.00,,,0.00,VWS V13.01,2013-01-01 12:29:00,
2013-01-01 07:34:00,35.2,0.2,0.00,WNW,298,0.0,0.0,22,0.00,,,0.00,VWS V13.01,2013-01-01 12:34:00,
2013-01-01 07:39:00,35.1,0.1,0.00,WNW,298,0.0,0.0,22,0.00,,,0.00,VWS V13.01,2013-01-01 12:39:00,
2013-01-01 07:44:00,34.9,-0.1,0.00,WNW,298,0.0,0.0,22,0.00,,,0.00,VWS V13.01,2013-01-01 12:44:00,
2013-01-01 07:49:00,34.7,-0.2,0.00,WNW,298,0.0,0.0,22,0.00,,,0.00,VWS V13.01,2013-01-01 12:49:00,
2013-01-01 07:54:00,34.5,-0.4,0.00,WNW,302,0.0,0.0,22,0.00,,,0.00,VWS V13.01,2013-01-01 12:54:00,
2013-01-01 07:59:00,34.3,-0.6,0.00,WNW,303,0.0,0.0,22,0.00,,,0.00,VWS V13.01,2013-01-01 12:59:00,
2013-01-01 08:04:00,34.0,-0.9,0.00,WNW,303,0.0,0.0,22,0.00,,,0.00,VWS V13.01,2013-01-01 13:04:00,
2013-01-01 08:09:00,34.0,-0.9,0.00,WNW,303,0.0,0.0,22,0.00,,,0.00,VWS V13.01,2013-01-01 13:09:00,
2013-01-01 08:14:00,33.6,1.6,0.00,WNW,303,0.0,0.0,25,0.00,,,0.00,VWS V13.01,2013-01-01 13:14:00,
2013-01-01 08:19:00,33.8,1.7,0.00,WNW,303,0.0,0.0,25,0.00,,,0.00,VWS V13.01,2013-01-01 13:19:00,
2013-01-01 08:24:00,33.8,1.7,0.00,WNW,303,0.0,0.0,25,0.00,,,0.00,VWS V13.01,2013-01-01 13:24:00,
2013-01-01 08:30:00,33.6,1.6,0.00,WNW,303,0.0,0.0,25,0.00,,,0.00,VWS V13.01,2013-01-01 13:30:00,
2013-01-01 08:35:00,33.4,1.4,0.00,WNW,303,0.0,0.0,25,0.00,,,0.00,VWS V13.01,2013-01-01 13:35:00,
2013-01-01 08:40:00,33.4,1.4,0.00,WNW,303,0.0,0.0,25,0.00,,,0.00,VWS V13.01,2013-01-01 13:40:00,
2013-01-01 08:45:00,33.8,1.7,0.00,WNW,303,0.0,0.0,25,0.00,,,0.00,VWS V13.01,2013-01-01 13:45:00,
2013-01-01 08:50:00,34.3,2.2,0.00,WNW,298,0.0,0.0,25,0.00,,,0.00,VWS V13.01,2013-01-01 13:50:00,
2013-01-01 08:55:00,34.5,2.3,0.00,WNW,298,0.0,0.0,25,0.00,,,0.00,VWS V13.01,2013-01-01 13:55:00,
2013-01-01 09:00:00,34.9,2.6,0.00,West,272,0.0,0.0,25,0.00,,,0.00,VWS V13.01,2013-01-01 14:00:00,
2013-01-01 09:05:00,35.1,0.1,0.00,WNW,285,0.0,0.0,22,0.00,,,0.00,VWS V13.01,2013-01-01 14:05:00,
2013-01-01 09:10:00,35.2,0.2,0.00,WNW,285,0.0,0.0,22,0.00,,,0.00,VWS V13.01,2013-01-01 14:10:00,
2013-01-01 09:15:00,35.4,0.4,0.00,WNW,285,0.0,0.0,22,0.00,,,0.00,VWS V13.01,2013-01-01 14:15:00,
2013-01-01 09:20:00,35.6,2.4,0.00,ENE,74,0.0,0.0,24,0.00,,,0.00,VWS V13.01,2013-01-01 14:20:00,
2013-01-01 09:25:00,35.4,3.1,0.00,NE,37,0.0,0.0,25,0.00,,,0.00,VWS V13.01,2013-01-01 14:25:00,
2013-01-01 09:30:00,35.4,3.1,0.00,NW,309,0.0,0.0,25,0.00,,,0.00,VWS V13.01,2013-01-01 14:30:00,
2013-01-01 09:35:00,35.2,3.0,0.00,NNW,338,0.0,0.0,25,0.00,,,0.00,VWS V13.01,2013-01-01 14:35:00,
2013-01-01 09:40:00,35.2,3.0,0.00,NNE,18,0.0,0.0,25,0.00,,,0.00,VWS V13.01,2013-01-01 14:40:00,
2013-01-01 09:45:00,35.2,3.0,0.00,NW,320,0.0,0.0,25,0.00,,,0.00,VWS V13.01,2013-01-01 14:45:00,
2013-01-01 09:50:00,35.4,3.1,0.00,NNE,13,0.0,0.0,25,0.00,,,0.00,VWS V13.01,2013-01-01 14:50:00,
2013-01-01 09:55:00,35.4,3.1,0.00,NW,312,0.0,0.0,25,0.00,,,0.00,VWS V13.01,2013-01-01 14:55:00,
2013-01-01 10:01:00,35.6,2.4,0.00,NNW,334,3.1,4.0,24,0.00,,,0.00,VWS V13.01,2013-01-01 15:01:00,
2013-01-01 10:06:00,35.6,2.4,0.00,North,10,5.4,8.3,24,0.00,,,0.00,VWS V13.01,2013-01-01 15:06:00,
2013-01-01 10:11:00,35.4,3.1,0.00,NNE,24,6.7,8.1,25,0.00,,,0.00,VWS V13.01,2013-01-01 15:11:00,
2013-01-01 10:16:00,35.2,3.0,0.00,West,266,2.2,7.6,25,0.00,,,0.00,VWS V13.01,2013-01-01 15:16:00,
2013-01-01 10:21:00,35.6,2.4,0.00,North,357,3.1,4.0,24,0.00,,,0.00,VWS V13.01,2013-01-01 15:21:00,
2013-01-01 10:26:00,35.6,2.4,0.00,North,6,5.4,5.4,24,0.00,,,0.00,VWS V13.01,2013-01-01 15:26:00,
2013-01-01 10:31:00,35.6,2.4,0.00,NNE,15,4.0,4.0,24,0.00,,,0.00,VWS V13.01,2013-01-01 15:31:00,
2013-01-01 10:36:00,35.2,3.0,0.00,NW,307,2.7,2.7,25,0.00,,,0.00,VWS V13.01,2013-01-01 15:36:00,
2013-01-01 10:41:00,34.9,2.6,0.00,NNW,332,2.2,5.8,25,0.00,,,0.00,VWS V13.01,2013-01-01 15:41:00,
2013-01-01 10:46:00,34.5,2.3,0.00,NE,54,5.8,5.8,25,0.00,,,0.00,VWS V13.01,2013-01-01 15:46:00,
2013-01-01 10:51:00,34.0,1.9,0.00,NNW,342,6.3,6.3,25,0.00,,,0.00,VWS V13.01,2013-01-01 15:51:00,
2013-01-01 10:56:00,33.6,1.6,0.00,North,7,2.7,2.7,25,0.00,,,0.00,VWS V13.01,2013-01-01 15:56:00,
2013-01-01 11:01:00,33.1,3.5,0.00,NW,316,0.0,2.7,28,0.00,,,0.00,VWS V13.01,2013-01-01 16:01:00,
2013-01-01 11:06:00,32.9,3.4,0.00,NNE,22,6.3,6.3,28,0.00,,,0.00,VWS V13.01,2013-01-01 16:06:00,
2013-01-01 11:11:00,32.7,3.2,0.00,ENE,74,0.0,2.7,28,0.00,,,0.00,VWS V13.01,2013-01-01 16:11:00,
2013-01-01 11:17:00,32.9,4.9,0.00,WSW,245,0.0,3.1,30,0.00,,,0.00,VWS V13.01,2013-01-01 16:17:00,
2013-01-01 11:22:00,33.1,5.0,0.00,WNW,298,3.6,4.0,30,0.00,,,0.00,VWS V13.01,2013-01-01 16:22:00,
2013-01-01 11:27:00,32.9,4.9,0.00,NW,308,4.9,4.9,30,0.00,,,0.00,VWS V13.01,2013-01-01 16:27:00,
2013-01-01 11:32:00,32.9,4.9,0.00,West,260,2.7,4.0,30,0.00,,,0.00,VWS V13.01,2013-01-01 16:32:00,
2013-01-01 11:37:00,32.7,4.7,0.00,NNE,15,4.0,8.3,30,0.00,,,0.00,VWS V13.01,2013-01-01 16:37:00,
2013-01-01 11:42:00,32.7,4.7,0.00,NNW,337,4.0,4.0,30,0.00,,,0.00,VWS V13.01,2013-01-01 16:42:00,
2013-01-01 11:47:00,32.9,4.9,0.00,North,10,2.7,2.7,30,0.00,,,0.00,VWS V13.01,2013-01-01 16:47:00,
2013-01-01 11:52:00,33.1,5.0,0.00,NNW,343,8.1,8.1,30,0.00,,,0.00,VWS V13.01,2013-01-01 16:52:00,
2013-01-01 11:57:00,33.3,5.2,0.00,NW,310,3.6,5.4,30,0.00,,,0.00,VWS V13.01,2013-01-01 16:57:00,
2013-01-01 12:02:00,33.4,3.8,0.00,North,3,8.3,8.7,28,0.00,,,0.00,VWS V13.01,2013-01-01 17:02:00,
2013-01-01 12:07:00,33.6,4.0,0.00,WSW,258,3.6,3.6,28,0.00,,,0.00,VWS V13.01,2013-01-01 17:07:00,
2013-01-01 12:12:00,33.4,3.8,0.00,ENE,57,4.0,7.6,28,0.00,,,0.00,VWS V13.01,2013-01-01 17:12:00,
2013-01-01 12:18:00,33.1,3.5,0.00,East,96,4.9,4.9,28,0.00,,,0.00,VWS V13.01,2013-01-01 17:18:00,
2013-01-01 12:23:00,33.1,5.0,0.00,NE,49,2.7,5.8,30,0.00,,,0.00,VWS V13.01,2013-01-01 17:23:00,
2013-01-01 12:28:00,33.3,3.7,0.00,NNE,22,3.1,5.8,28,0.00,,,0.00,VWS V13.01,2013-01-01 17:28:00,
2013-01-01 12:33:00,33.1,3.5,0.00,North,349,6.3,6.3,28,0.00,,,0.00,VWS V13.01,2013-01-01 17:33:00,
2013-01-01 12:38:00,32.7,4.7,0.00,ENE,67,8.3,8.3,30,0.00,,,0.00,VWS V13.01,2013-01-01 17:38:00,
2013-01-01 12:43:00,32.4,4.4,0.00,East,80,4.0,4.0,30,0.00,,,0.00,VWS V13.01,2013-01-01 17:43:00,
2013-01-01 12:48:00,32.2,4.2,0.00,ENE,70,7.6,7.6,30,0.00,,,0.00,VWS V13.01,2013-01-01 17:48:00,
2013-01-01 12:53:00,32.2,4.2,0.00,ESE,120,5.4,5.4,30,0.00,,,0.00,VWS V13.01,2013-01-01 17:53:00,
2013-01-01 12:58:00,32.4,5.1,0.00,ENE,73,4.0,4.0,31,0.00,,,0.00,VWS V13.01,2013-01-01 17:58:00,
2013-01-01 13:03:00,32.5,4.6,0.00,ENE,66,3.6,3.6,30,0.00,,,0.00,VWS V13.01,2013-01-01 18:03:00,
2013-01-01 13:08:00,32.7,4.7,0.00,NE,35,2.2,5.8,30,0.00,,,0.00,VWS V13.01,2013-01-01 18:08:00,
2013-01-01 13:13:00,32.9,4.9,0.00,SE,129,6.3,6.3,30,0.00,,,0.00,VWS V13.01,2013-01-01 18:13:00,
2013-01-01 13:18:00,33.1,5.0,0.00,ESE,115,3.6,5.4,30,0.00,,,0.00,VWS V13.01,2013-01-01 18:18:00,
2013-01-01 13:23:00,32.4,4.4,0.00,East,100,3.6,3.6,30,0.00,,,0.00,VWS V13.01,2013-01-01 18:23:00,
2013-01-01 13:28:00,31.6,3.8,0.00,ESE,109,4.0,5.4,30,0.00,,,0.00,VWS V13.01,2013-01-01 18:28:00,
2013-01-01 13:33:00,31.3,4.2,0.00,ESE,106,3.6,5.8,31,0.00,,,0.00,VWS V13.01,2013-01-01 18:33:00,
2013-01-01 13:38:00,31.1,4.0,0.00,ESE,112,3.1,3.1,31,0.00,,,0.00,VWS V13.01,2013-01-01 18:38:00,
2013-01-01 13:44:00,31.1,4.0,0.00,ENE,61,0.0,4.0,31,0.00,,,0.00,VWS V13.01,2013-01-01 18:44:00,
2013-01-01 13:49:00,30.7,3.0,0.00,ENE,78,3.6,4.0,30,0.00,,,0.00,VWS V13.01,2013-01-01 18:49:00,
2013-01-01 13:54:00,30.6,2.8,0.00,ESE,114,4.0,4.9,30,0.00,,,0.00,VWS V13.01,2013-01-01 18:54:00,
2013-01-01 13:59:00,30.4,2.7,0.00,East,88,6.7,6.7,30,0.00,,,0.00,VWS V13.01,2013-01-01 18:59:00,
2013-01-01 14:04:00,30.2,2.5,0.00,East,79,5.8,5.8,30,0.00,,,0.00,VWS V13.01,2013-01-01 19:04:00,
2013-01-01 14:09:00,30.2,2.5,0.00,ESE,105,5.4,6.3,30,0.00,,,0.00,VWS V13.01,2013-01-01 19:09:00,
2013-01-01 14:14:00,30.2,2.5,0.00,ENE,66,2.7,4.0,30,0.00,,,0.00,VWS V13.01,2013-01-01 19:14:00,
2013-01-01 14:19:00,30.2,1.0,0.00,ESE,123,2.7,3.6,28,0.00,,,0.00,VWS V13.01,2013-01-01 19:19:00,
2013-01-01 14:24:00,30.2,1.0,0.00,East,90,2.7,4.9,28,0.00,,,0.00,VWS V13.01,2013-01-01 19:24:00,
2013-01-01 14:29:00,30.2,2.5,0.00,ENE,59,2.7,3.1,30,0.00,,,0.00,VWS V13.01,2013-01-01 19:29:00,
2013-01-01 14:34:00,30.2,1.0,0.00,East,89,3.1,3.6,28,0.00,,,0.00,VWS V13.01,2013-01-01 19:34:00,
2013-01-01 14:39:00,30.2,1.0,0.00,ENE,58,2.7,2.7,28,0.00,,,0.00,VWS V13.01,2013-01-01 19:39:00,
2013-01-01 14:44:00,30.4,2.7,0.00,ESE,107,2.2,2.2,30,0.00,,,0.00,VWS V13.01,2013-01-01 19:44:00,
2013-01-01 14:49:00,30.4,2.7,0.00,ESE,105,0.0,0.0,30,0.00,,,0.00,VWS V13.01,2013-01-01 19:49:00,
2013-01-01 14:54:00,30.6,1.4,0.00,ESE,105,0.0,0.0,28,0.00,,,0.00,VWS V13.01,2013-01-01 19:54:00,
2013-01-01 14:59:00,30.9,-0.8,0.00,NNE,26,4.0,4.0,25,0.00,,,0.00,VWS V13.01,2013-01-01 19:59:00,
2013-01-01 15:04:00,30.9,-0.8,0.00,NE,36,0.0,2.2,25,0.00,,,0.00,VWS V13.01,2013-01-01 20:04:00,
2013-01-01 15:09:00,30.7,-0.9,0.00,North,357,2.7,3.6,25,0.00,,,0.00,VWS V13.01,2013-01-01 20:09:00,
2013-01-01 15:15:00,30.6,-1.1,0.00,NE,38,5.8,6.7,25,0.00,,,0.00,VWS V13.01,2013-01-01 20:15:00,
2013-01-01 15:20:00,30.6,-2.8,0.00,NNW,334,4.0,8.7,23,0.00,,,0.00,VWS V13.01,2013-01-01 20:20:00,
2013-01-01 15:25:00,30.4,-3.0,0.00,North,349,5.8,8.1,23,0.00,,,0.00,VWS V13.01,2013-01-01 20:25:00,
2013-01-01 15:30:00,30.2,-3.1,0.00,East,80,4.0,5.4,23,0.00,,,0.00,VWS V13.01,2013-01-01 20:30:00,
2013-01-01 15:35:00,30.2,-3.1,0.00,North,0,4.9,5.4,23,0.00,,,0.00,VWS V13.01,2013-01-01 20:35:00,
2013-01-01 15:40:00,30.2,-3.1,0.00,NW,315,2.2,4.5,23,0.00,,,0.00,VWS V13.01,2013-01-01 20:40:00,
2013-01-01 15:45:00,30.2,-3.1,0.00,WSW,245,3.1,3.6,23,0.00,,,0.00,VWS V13.01,2013-01-01 20:45:00,
2013-01-01 15:50:00,30.2,-3.1,0.00,NNW,341,0.0,0.0,23,0.00,,,0.00,VWS V13.01,2013-01-01 20:50:00,
2013-01-01 15:55:00,30.2,-3.1,0.00,WNW,298,3.1,3.1,23,0.00,,,0.00,VWS V13.01,2013-01-01 20:55:00,
2013-01-01 16:00:00,30.2,-3.1,0.00,West,281,6.7,10.5,23,0.00,,,0.00,VWS V13.01,2013-01-01 21:00:00,
2013-01-01 16:05:00,30.2,-3.1,0.00,WNW,302,5.4,5.4,23,0.00,,,0.00,VWS V13.01,2013-01-01 21:05:00,
2013-01-01 16:10:00,30.2,-3.1,0.00,NW,320,4.0,4.0,23,0.00,,,0.00,VWS V13.01,2013-01-01 21:10:00,
2013-01-01 16:15:00,30.2,-3.1,0.00,West,263,3.1,5.8,23,0.00,,,0.00,VWS V13.01,2013-01-01 21:15:00,
2013-01-01 16:20:00,30.2,-3.1,0.00,WNW,286,5.8,6.3,23,0.00,,,0.00,VWS V13.01,2013-01-01 21:20:00,
2013-01-01 16:26:00,30.0,-3.3,0.00,WNW,300,5.4,7.6,23,0.00,,,0.00,VWS V13.01,2013-01-01 21:26:00,
2013-01-01 16:31:00,29.8,-3.4,0.00,West,271,5.4,8.3,23,0.00,,,0.00,VWS V13.01,2013-01-01 21:31:00,
2013-01-01 16:36:00,29.7,-3.6,0.00,West,275,3.6,4.9,23,0.00,,,0.00,VWS V13.01,2013-01-01 21:36:00,
2013-01-01 16:41:00,29.5,-3.7,0.00,WSW,252,4.0,5.4,23,0.00,,,0.00,VWS V13.01,2013-01-01 21:41:00,
2013-01-01 16:46:00,29.3,-3.9,0.00,WNW,293,4.0,5.4,23,0.00,,,0.00,VWS V13.01,2013-01-01 21:46:00,
2013-01-01 16:51:00,29.1,-4.1,0.00,SW,235,2.7,4.0,23,0.00,,,0.00,VWS V13.01,2013-01-01 21:51:00,
2013-01-01 16:56:00,28.9,-4.2,0.00,West,267,4.0,4.0,23,0.00,,,0.00,VWS V13.01,2013-01-01 21:56:00,
2013-01-01 17:01:00,28.8,-4.3,0.00,West,270,4.9,4.9,23,0.00,,,0.00,VWS V13.01,2013-01-01 22:01:00,
2013-01-01 17:06:00,28.8,-4.3,0.00,WNW,292,0.0,3.1,23,0.00,,,0.00,VWS V13.01,2013-01-01 22:06:00,
2013-01-01 17:11:00,28.6,-4.5,0.00,ENE,74,5.8,7.6,23,0.00,,,0.00,VWS V13.01,2013-01-01 22:11:00,
2013-01-01 17:16:00,28.4,-4.7,0.00,NE,38,0.0,0.0,23,0.00,,,0.00,VWS V13.01,2013-01-01 22:16:00,
2013-01-01 17:21:00,28.2,-6.7,0.00,NNW,331,4.0,5.8,21,0.00,,,0.00,VWS V13.01,2013-01-01 22:21:00,
2013-01-01 17:26:00,28.2,-6.7,0.00,WSW,256,3.1,3.1,21,0.00,,,0.00,VWS V13.01,2013-01-01 22:26:00,
2013-01-01 17:32:00,28.0,-6.8,0.00,North,353,3.1,5.4,21,0.00,,,0.00,VWS V13.01,2013-01-01 22:32:00,
2013-01-01 17:37:00,27.9,-7.0,0.00,WNW,299,3.6,3.6,21,0.00,,,0.00,VWS V13.01,2013-01-01 22:37:00,
2013-01-01 17:42:00,27.7,-7.2,0.00,West,259,2.7,3.6,21,0.00,,,0.00,VWS V13.01,2013-01-01 22:42:00,
2013-01-01 17:47:00,27.5,-7.3,0.00,West,265,4.0,4.0,21,0.00,,,0.00,VWS V13.01,2013-01-01 22:47:00,
2013-01-01 17:52:00,27.3,-7.4,0.00,WNW,285,6.3,6.3,21,0.00,,,0.00,VWS V13.01,2013-01-01 22:52:00,
2013-01-01 17:57:00,27.1,-7.6,0.00,NW,320,5.4,5.8,21,0.00,,,0.00,VWS V13.01,2013-01-01 22:57:00,
2013-01-01 18:02:00,27.0,-7.8,0.00,WNW,293,8.1,8.1,21,0.00,,,0.00,VWS V13.01,2013-01-01 23:02:00,
2013-01-01 18:07:00,26.8,-7.9,0.00,NNW,339,2.7,4.9,21,0.00,,,0.00,VWS V13.01,2013-01-01 23:07:00,
2013-01-01 18:12:00,26.8,-7.9,0.00,West,274,8.1,8.1,21,0.00,,,0.00,VWS V13.01,2013-01-01 23:12:00,
2013-01-01 18:17:00,26.6,-8.1,0.00,West,271,5.4,9.2,21,0.00,,,0.00,VWS V13.01,2013-01-01 23:17:00,
2013-01-01 18:22:00,26.6,-8.1,0.00,West,272,5.8,5.8,21,0.00,,,0.00,VWS V13.01,2013-01-01 23:22:00,
2013-01-01 18:27:00,26.4,-8.2,0.00,West,280,5.8,5.8,21,0.00,,,0.00,VWS V13.01,2013-01-01 23:27:00,
2013-01-01 18:32:00,26.2,-8.4,0.00,West,280,3.6,3.6,21,0.00,,,0.00,VWS V13.01,2013-01-01 23:32:00,
2013-01-01 18:38:00,26.1,-8.5,0.00,West,268,2.7,2.7,21,0.00,,,0.00,VWS V13.01,2013-01-01 23:38:00,
2013-01-01 18:43:00,25.9,-8.7,0.00,West,281,0.0,3.1,21,0.00,,,0.00,VWS V13.01,2013-01-01 23:43:00,
2013-01-01 18:48:00,25.7,-8.8,0.00,West,280,2.2,2.2,21,0.00,,,0.00,VWS V13.01,2013-01-01 23:48:00,
2013-01-01 18:53:00,25.3,-9.1,0.00,NW,320,2.7,2.7,21,0.00,,,0.00,VWS V13.01,2013-01-01 23:53:00,
2013-01-01 18:58:00,25.0,-9.4,0.00,WNW,289,0.0,0.0,21,0.00,,,0.00,VWS V13.01,2013-01-01 23:58:00,
2013-01-01 19:03:00,24.6,-7.0,0.00,WSW,258,3.6,4.0,24,0.00,,,0.00,VWS V13.01,2013-01-02 00:03:00,
2013-01-01 19:08:00,24.4,-7.2,0.00,West,269,6.3,6.3,24,0.00,,,0.00,VWS V13.01,2013-01-02 00:08:00,
2013-01-01 19:13:00,24.4,-7.2,0.00,West,281,5.4,6.3,24,0.00,,,0.00,VWS V13.01,2013-01-02 00:13:00,
2013-01-01 19:18:00,24.3,-7.3,0.00,West,267,5.4,5.8,24,0.00,,,0.00,VWS V13.01,2013-01-02 00:18:00,
2013-01-01 19:23:00,24.1,-7.5,0.00,West,278,6.3,7.6,24,0.00,,,0.00,VWS V13.01,2013-01-02 00:23:00,
2013-01-01 19:28:00,24.1,-9.2,0.00,WNW,287,4.9,4.9,22,0.00,,,0.00,VWS V13.01,2013-01-02 00:28:00,
2013-01-01 19:33:00,23.9,-9.4,0.00,WSW,249,0.0,0.0,22,0.00,,,0.00,VWS V13.01,2013-01-02 00:33:00,
2013-01-01 19:38:00,23.7,-9.6,0.00,West,271,0.0,2.2,22,0.00,,,0.00,VWS V13.01,2013-01-02 00:38:00,
2013-01-01 19:43:00,23.5,-9.7,0.00,West,278,4.0,4.0,22,0.00,,,0.00,VWS V13.01,2013-01-02 00:43:00,
2013-01-01 19:48:00,23.4,-9.9,0.00,NW,318,2.2,2.2,22,0.00,,,0.00,VWS V13.01,2013-01-02 00:48:00,
2013-01-01 19:53:00,23.2,-10.0,0.00,NNW,348,0.0,0.0,22,0.00,,,0.00,VWS V13.01,2013-01-02 00:53:00,
2013-01-01 19:58:00,22.8,-10.3,0.00,North,11,0.0,0.0,22,0.00,,,0.00,VWS V13.01,2013-01-02 00:58:00,
2013-01-01 20:03:00,22.3,-10.8,0.00,North,3,2.7,3.1,22,0.00,,,0.00,VWS V13.01,2013-01-02 01:03:00,
2013-01-01 20:09:00,22.1,-10.9,0.00,North,0,0.0,2.2,22,0.00,,,0.00,VWS V13.01,2013-01-02 01:09:00,
2013-01-01 20:14:00,21.9,-8.5,0.00,North,0,0.0,0.0,25,0.00,,,0.00,VWS V13.01,2013-01-02 01:14:00,
2013-01-01 20:19:00,21.7,-8.6,0.00,NNW,336,0.0,0.0,25,0.00,,,0.00,VWS V13.01,2013-01-02 01:19:00,
2013-01-01 20:24:00,21.6,-8.8,0.00,NNE,27,0.0,0.0,25,0.00,,,0.00,VWS V13.01,2013-01-02 01:24:00,
2013-01-01 20:29:00,21.4,-9.0,0.00,NNE,28,0.0,2.2,25,0.00,,,0.00,VWS V13.01,2013-01-02 01:29:00,
2013-01-01 20:34:00,21.2,-9.1,0.00,WNW,285,2.2,2.2,25,0.00,,,0.00,VWS V13.01,2013-01-02 01:34:00,
2013-01-01 20:39:00,21.0,-9.3,0.00,North,7,0.0,0.0,25,0.00,,,0.00,VWS V13.01,2013-01-02 01:39:00,
2013-01-01 20:44:00,20.8,-9.4,0.00,WSW,257,3.1,3.1,25,0.00,,,0.00,VWS V13.01,2013-01-02 01:44:00,
2013-01-01 20:49:00,20.8,-9.4,0.00,ESE,122,2.2,2.7,25,0.00,,,0.00,VWS V13.01,2013-01-02 01:49:00,
2013-01-01 20:54:00,20.8,-9.4,0.00,ESE,111,2.7,2.7,25,0.00,,,0.00,VWS V13.01,2013-01-02 01:54:00,
2013-01-01 20:59:00,20.8,-9.4,0.00,NE,38,2.7,5.4,25,0.00,,,0.00,VWS V13.01,2013-01-02 01:59:00,
2013-01-01 21:04:00,20.8,-9.4,0.00,WNW,285,0.0,2.7,25,0.00,,,0.00,VWS V13.01,2013-01-02 02:04:00,
2013-01-01 21:10:00,20.7,-9.6,0.00,West,274,0.0,0.0,25,0.00,,,0.00,VWS V13.01,2013-01-02 02:10:00,
2013-01-01 21:15:00,20.3,-9.9,0.00,West,267,0.0,2.7,25,0.00,,,0.00,VWS V13.01,2013-01-02 02:15:00,
2013-01-01 21:20:00,20.1,-10.1,0.00,SSW,195,0.0,0.0,25,0.00,,,0.00,VWS V13.01,2013-01-02 02:20:00,
2013-01-01 21:25:00,19.8,-10.4,0.00,SSW,212,2.7,2.7,25,0.00,,,0.00,VWS V13.01,2013-01-02 02:25:00,
2013-01-01 21:30:00,19.4,-10.7,0.00,WSW,246,0.0,2.2,25,0.00,,,0.00,VWS V13.01,2013-01-02 02:30:00,
2013-01-01 21:35:00,19.2,-10.8,0.00,West,281,4.0,4.0,25,0.00,,,0.00,VWS V13.01,2013-01-02 02:35:00,
2013-01-01 21:40:00,19.0,-11.0,0.00,WSW,250,0.0,0.0,25,0.00,,,0.00,VWS V13.01,2013-01-02 02:40:00,
2013-01-01 21:45:00,19.0,-11.0,0.00,West,262,2.2,2.7,25,0.00,,,0.00,VWS V13.01,2013-01-02 02:45:00,
2013-01-01 21:50:00,18.5,-11.4,0.00,West,262,0.0,0.0,25,0.00,,,0.00,VWS V13.01,2013-01-02 02:50:00,
2013-01-01 21:55:00,18.3,-11.6,0.00,West,262,0.0,0.0,25,0.00,,,0.00,VWS V13.01,2013-01-02 02:55:00,
2013-01-01 22:00:00,18.0,-11.9,0.00,West,262,0.0,0.0,25,0.00,,,0.00,VWS V13.01,2013-01-02 03:00:00,
2013-01-01 22:05:00,17.4,-11.6,0.00,ESE,110,0.0,0.0,26,0.00,,,0.00,VWS V13.01,2013-01-02 03:05:00,
2013-01-01 22:10:00,16.9,-12.1,0.00,ESE,110,0.0,0.0,26,0.00,,,0.00,VWS V13.01,2013-01-02 03:10:00,
2013-01-01 22:15:00,16.7,-10.7,0.00,ESE,110,0.0,0.0,28,0.00,,,0.00,VWS V13.01,2013-01-02 03:15:00,
2013-01-01 22:20:00,16.7,-10.7,0.00,ESE,110,0.0,0.0,28,0.00,,,0.00,VWS V13.01,2013-01-02 03:20:00,
2013-01-01 22:25:00,16.5,-10.9,0.00,ESE,109,0.0,0.0,28,0.00,,,0.00,VWS V13.01,2013-01-02 03:25:00,
2013-01-01 22:30:00,16.0,-11.4,0.00,ESE,110,0.0,0.0,28,0.00,,,0.00,VWS V13.01,2013-01-02 03:30:00,
2013-01-01 22:35:00,15.4,-11.1,0.00,ESE,110,0.0,0.0,29,0.00,,,0.00,VWS V13.01,2013-01-02 03:35:00,
2013-01-01 22:40:00,14.9,-11.6,0.00,ESE,110,0.0,0.0,29,0.00,,,0.00,VWS V13.01,2013-01-02 03:40:00,
2013-01-01 22:45:00,14.5,-10.6,0.00,ESE,109,0.0,0.0,31,0.00,,,0.00,VWS V13.01,2013-01-02 03:45:00,
2013-01-01 22:51:00,14.5,-8.7,0.00,ESE,110,0.0,0.0,34,0.00,,,0.00,VWS V13.01,2013-01-02 03:51:00,
2013-01-01 22:56:00,14.4,-8.9,0.00,ESE,109,0.0,0.0,34,0.00,,,0.00,VWS V13.01,2013-01-02 03:56:00,
2013-01-01 23:01:00,14.0,-9.2,0.00,ESE,110,0.0,0.0,34,0.00,,,0.00,VWS V13.01,2013-01-02 04:01:00,
2013-01-01 23:06:00,13.3,-9.8,0.00,ESE,110,0.0,0.0,34,0.00,,,0.00,VWS V13.01,2013-01-02 04:06:00,
2013-01-01 23:11:00,12.9,-10.1,0.00,ESE,110,0.0,0.0,34,0.00,,,0.00,VWS V13.01,2013-01-02 04:11:00,
2013-01-01 23:16:00,12.7,-10.3,0.00,ESE,110,0.0,0.0,34,0.00,,,0.00,VWS V13.01,2013-01-02 04:16:00,
2013-01-01 23:21:00,12.6,-10.5,0.00,ESE,110,0.0,0.0,34,0.00,,,0.00,VWS V13.01,2013-01-02 04:21:00,
2013-01-01 23:26:00,11.8,-11.1,0.00,ESE,110,0.0,0.0,34,0.00,,,0.00,VWS V13.01,2013-01-02 04:26:00,
2013-01-01 23:31:00,11.8,-11.1,0.00,ESE,109,0.0,0.0,34,0.00,,,0.00,VWS V13.01,2013-01-02 04:31:00,
2013-01-01 23:36:00,11.8,-11.1,0.00,ESE,110,0.0,0.0,34,0.00,,,0.00,VWS V13.01,2013-01-02 04:36:00,
2013-01-01 23:41:00,11.7,-11.3,0.00,ESE,110,0.0,0.0,34,0.00,,,0.00,VWS V13.01,2013-01-02 04:41:00,
2013-01-01 23:46:00,11.7,-11.3,0.00,ESE,110,0.0,0.0,34,0.00,,,0.00,VWS V13.01,2013-01-02 04:46:00,
2013-01-01 23:51:00,11.1,-11.8,0.00,ESE,110,0.0,0.0,34,0.00,,,0.00,VWS V13.01,2013-01-02 04:51:00,
2013-01-01 23:56:00,11.1,-11.8,0.00,ESE,110,0.0,0.0,34,0.00,,,0.00,VWS V13.01,2013-01-02 04:56:00,